sat.trackr.live / text

‹ back to catalog

ICEYE-X44

NORAD 62707 · 2025-009DC

PAYLOAD ACTIVE UNKNOWN

§ Identity

Operator
Country
UAE
Launch date
2025-01-14
Launch site
AFWTR
Launch vehicle
Mass (kg)
RCS (m²)

External: N2YO · Heavens-Above · Gunter

§ Orbital elements

Epoch: 2026-05-25T03:25:10.310016Z

Period
96.27 min
Inclination
97.7052°
Eccentricity
0.0001647
Mean motion
14.95852249 rev/d
Perigee alt
578.6 km
Apogee alt
580.9 km
Semi-major
6,957.9 km
B*
2.4141e-4
RAAN
224.6356°
Arg perigee
153.7558°
Mean anomaly
206.3746°
Rev number
9,649

§ Raw data

ICEYE-X441 62707U 25009DC  26145.14248044  .00002640  00000+0  24141-3 0  99992 62707  97.7052 224.6356 0001647 153.7558 206.3746 14.95852249 96499

JSON: /api/v1/satellites/62707 · /tle

For live sub-satellite position, see the globe view (requires WebGL).

§ Visibility from observer

Set your observer location to see the next 7 days of passes ≥ 10°. The values pass through the URL so the page stays shareable.

No JS? Fill the form by hand. The geolocation button needs JavaScript.

§ Radio — SatNOGS DB

ModeDescriptionDownlinkUplink
FM S-band telemetry 2.270 GHz

1 transmitter · refreshed weekly from db.satnogs.org